Location: Lugrin
(46.4033°N, 6.6674°E)
Time: 06:49:49
(UTC+00:00)

Cosmos 2026 Rocket - Pass Details

Date: 18 September 2020
Orbit: 940 x 1000 km, 82.9° (Epoch: 23 October)

Event Time Altitude Azimuth Distance (km) Brightness Sun altitude
Rises 19:56:26 0° 352° (N) 3,715 7.6 -23.6°
Reaches altitude 10° 19:58:58 10° 354° (N) 2,768 6.8 -23.9°
Maximum altitude 20:05:21 76° 80° (E) 1,034 3.9 -24.9°
Enters shadow 20:06:54 53° 150° (SSE) 1,211 4.1 -25.1°
